Location: Brantley
(31.5822°N, 86.2569°W)
Time: 00:44:21
(UTC+00:00)

Courier 1B Rocket - Pass Details

Date: 18 February 2026
Orbit: 920 x 1201 km, 28.2° (Epoch: 9 March)

Event Time Altitude Azimuth Distance (km) Brightness Sun altitude
Rises 05:44:18 0° 272° (W) 3,687 - -69.8°
Reaches altitude 10° 05:47:06 10° 264° (W) 2,778 - -69.8°
Maximum altitude 05:53:11 36° 200° (SSW) 1,617 - -70.0°
Drops below altitude 10° 05:59:40 10° 137° (SE) 2,963 - -70.0°
Sets 06:02:46 0° 129° (SE) 3,963 - -70.0°
